Location: Gorze? G�rny
(49.8500°N, 19.5000°E)
Time: 04:09:34
(UTC+00:00)

SL-16 R/B - Pass Details

Date: 13 May 2021
Orbit: 984 x 1007 km, 99.5° (Epoch: 23 June)

Event Time Altitude Azimuth Distance (km) Brightness Sun altitude
Exits shadow 23:15:12 10° 128° (SE) 2,796 4.6 -21.0°
Reaches altitude 10° 23:15:14 10° 128° (SE) 2,782 4.6 -21.0°
Maximum altitude 23:20:59 40° 62° (ENE) 1,450 3.7 -20.9°
Drops below altitude 10° 23:26:44 10° 355° (N) 2,790 6.0 -20.7°
Sets 23:29:21 0° 349° (NNW) 3,741 6.7 -20.6°
